Other Public Products
Issued by NWS Grand Forks, ND

Home | Current Version | Previous Version | Graphics & Text | Print | Product List | Glossary On
Versions: 1 2 3 4 5 6 7 8 9 10 11 12 13 14 15 16 17 18 19 20 21 22 23 24 25 26 27 28 29 30 31 32 33 34 35 36 37 38 39 40 41 42 43 44 45 46 47 48 49 50
000
FPUS83 KFGF 021031
OPUFGF
PRAIRIE TO PINES WEATHER ROUNDUP
NATIONAL WEATHER SERVICE EASTERN NORTH DAKOTA/GRAND FORKS ND
500 AM CDT SUN AUG 02 2015

 **SATELLITE DATA USED TO AUGMENT SKY COVER AT AUTOMATED STATIONS**
 *****  WEATHER ACROSS EASTERN NORTH DAKOTA  *****

CITY           SKY/WX    TMP DP  RH WIND       PRES   REMARKS
GRAND FORKS    LGT RAIN  64  60  87 W3        29.65R
GRAND FORKS AF LGT RAIN  63  61  94 N5        29.68R
GRAND CITY NWS NOT AVBL
BUXTON         NOT AVBL
DEVILS LAKE    CLEAR     61  54  77 NW10      29.75R
FARGO          CLEAR     67  64  90 NE6       29.61F
WAHPETON ARPT  MOSUNNY   61  59  94 N3        29.62S
$$

 *****  WEATHER ACROSS CENTRAL AND WESTERN NORTH DAKOTA  *****

CITY           SKY/WX    TMP DP  RH WIND       PRES   REMARKS
JAMESTOWN      CLEAR     64  60  87 N14       29.70R
BISMARCK       CLEAR     65  53  65 VRB3      29.82R
MINOT          CLEAR     59  55  87 NW10      29.84R
MINOT AFB      CLEAR     60  58  96 NW9       29.84R
GARRISON         N/A     58  55  90 N7        29.85R
WILLISTON      CLEAR     55  51  86 CALM      29.93R
DICKINSON      CLEAR     55  50  83 NW6       29.90R
HETTINGER      CLEAR     60  52  74 N5        29.91R
$$

 *****  OTHER OBSERVATIONS NORTHEAST NORTH DAKOTA  *****

CITY           SKY/WX    TMP DP  RH WIND       PRES   REMARKS
WALHALLA       FAIR      61  61 100 MISG      29.73R
LANGDON        FAIR      57  55  94 NW8       29.75R
CAVALIER       PTSUNNY   63  59  88 N7        29.71R
GRAFTON        FAIR      63  63 100 N10       29.69R
CANDO          FAIR      57  57 100 NW8       29.78R
FORT TOTTEN    NOT AVBL
ROLLA          FAIR      55  55 100 NW16      29.80R
RUGBY          NOT AVBL
 ***** THE ABOVE OBSERVATIONS ARE NON NWS ARE NOT QUALITY
        CONTROLLED AND MAY MIS-REPORT RAIN FOR SNOW...
$$

 *****  OTHER OBSERVATIONS SOUTHEAST NORTH DAKOTA *****

CITY           SKY/WX    TMP DP  RH WIND       PRES   REMARKS
COOPERSTOWN    NOT AVBL
VALLEY CITY    PTSUNNY   64  63  94 N14       29.70R
OAKES            N/A     64  59  82 NW15      29.67R
GWINNER          N/A     64  61  88 W10       29.65R
SHEYENNE NWR     N/A     64  64  99 N5        29.95S
BUFFALO        NOT AVBL
WYNDMERE         N/A     61  61 100 W3          N/A
 ***** THE ABOVE OBSERVATIONS ARE NON NWS ARE NOT QUALITY
       CONTROLLED AND MAY MIS-REPORT RAIN FOR SNOW...
$$

  *****  WEATHER ACROSS NORTHERN MINNESOTA  *****

CITY           SKY/WX    TMP DP  RH WIND       PRES   REMARKS
FLAG ISLAND    PTCLDY    66  59  77 NW9       29.65R
WARROAD        MOCLDY    59  55  88 NW3       29.67R
ROSEAU         PTCLDY    57  54  88 N3        29.66S
HALLOCK        CLOUDY    63  61  94 N7        29.69S
THF RVR FALLS  CLOUDY    64  57  77 NW5       29.66F
HALSTAD        NOT AVBL
FOSSTON        MOCLDY    61  57  88 CALM      29.68R
BAUDETTE       MOCLDY    57  56  96 NW6       29.64F
WASKISH        CLOUDY    64  61  88 W7        29.65F THUNDER
CROOKSTON      LGT RAIN  66  61  82 N6        29.66F
$$
  *****  WEATHER ACROSS CENTRAL AND WEST MINNESOTA  *****

CITY           SKY/WX    TMP DP  RH WIND       PRES   REMARKS
BEMIDJI        PTCLDY    59  57  94 SE3       29.65F
PARK RAPIDS    MOCLDY    69  62  78 NE3       29.66F
WADENA         MOCLDY    64  63  94 S3        29.65F
DETROIT LAKES  PTCLDY    66  64  94 CALM      29.66S
MOORHEAD       CLEAR     66  64  94 NE8       29.61F
FERGUS FALLS   PTCLDY    66  66 100 CALM      29.62F
ELBOW LAKE     FAIR      63  62  98 S8        29.63F
MORRIS MN      PTCLDY    64  63  94 CALM      29.64F
STAPLES        MOCLDY    64  63  94 SW3       29.65S
WHEATON        PTCLDY    63  61  94 S6        29.62F
$$
  *****  WEATHER ELSEWHERE ACROSS MINNESOTA  *****

CITY           SKY/WX    TMP DP  RH WIND       PRES   REMARKS
DULUTH         CLOUDY    67  57  70 N10       29.65F
INTRNTL FALLS  MOCLDY    59  57  93 N5        29.63F
ELY            CLOUDY    59  55  88 CALM      29.64F
CLOQUET        CLOUDY    64  55  72 NE5       29.65F
BRAINERD       PTCLDY    65  64  97 CALM      29.64F
HIBBING        CLOUDY    61  55  81 CALM      29.67F
ALEXANDRIA     PTCLDY    67  64  90 W6        29.68F
SAINT CLOUD    PTCLDY    67  64  90 NW6       29.66R
MINNEAPOLIS    PTCLDY    74  64  71 SW12G22   29.63F
$$

  *****  WEATHER ACROSS SOUTH DAKOTA  *****

CITY           SKY/WX    TMP DP  RH WIND       PRES   REMARKS
SIOUX FALLS    CLEAR     68  60  75 SW6       29.76F
BROOKINGS      CLEAR     63  57  82 S5        29.77S
WATERTOWN      CLEAR     64  61  90 SW7       29.73F
HURON            N/A     65  60  84 E3        29.73R
SISSETON         N/A     74  58  57 W16       29.62F
ABERDEEN       CLEAR     63  59  87 W10       29.69S
MITCHELL       CLEAR     64  60  87 SW5       29.76S
PIERRE         CLEAR     65  59  81 NW8       29.78R
MOBRIDGE       CLEAR     68  50  52 NW12      29.76R
RAPID CITY     CLEAR     68  54  60 NW7       29.90S
$$

  *****  SOME WEATHER IN NEARBY STATES *****

CITY           SKY/WX    TMP DP  RH WIND       PRES   REMARKS
GLASGOW MT     CLEAR     59  51  75 CALM      29.97R
GREAT FALLS MT CLEAR     54  39  57 SW8       30.00R
CHEYENNE WY    CLEAR     58  51  78 W13       30.13F
SCOTTSBLUFF NE CLEAR     62  56  80 N3        29.99F
OMAHA NE       CLOUDY    74  69  85 E3        29.86R
DES MOINES IA  MOCLDY    74  60  61 SW13      29.83F
DAVENPORT IA   CLEAR     70  68  93 SW6       29.86F
CHICAGO IL     PTCLDY    72  67  84 W10       29.86S
EAU CLAIRE WI  CLEAR     69  65  86 S7        29.67F
LA CROSSE WI   PTCLDY    74  68  81 VRB7      29.73F
$$

  *****  SOME NATIONAL WEATHER *****

CITY           SKY/WX    TMP DP  RH WIND       PRES   REMARKS
LA GUARDIA NY  PTCLDY    74  57  55 CALM      29.88R
RALEIGH NC     PTCLDY    67  60  78 E3        29.94R
ATLANTA GA     PTCLDY    73  60  63 CALM      29.94R
NEW ORLEANS LA CLEAR     74  69  85 CALM      29.87S
OKLAHOMA CITY  MOCLDY    73  70  90 S3        29.95F
ALBUQUERQUE NM MOCLDY    66  61  84 SW6       30.17S
SALT LAKE CITY PTCLDY    70  43  37 SE3       29.98R
LOS ANGELES CA CLEAR     68  62  81 CALM      29.89F
BOISE ID       MOCLDY    74  39  28 S5        29.88R
SEATTLE WA     CLEAR     71  50  47 NE14      29.93R
$$

*** WEATHER ACROSS MANITOBA...SASKATCHEWAN AND ONTARIO ***
                ***ONTARIO***

CITY           SKY/WX    TMP DP  RH WIND       PRES   REMARKS
GERALDTON      PTCLDY    54  54 100 W6        29.57S
THUNDER BAY    LGT RAIN  59  59 100 SW6       29.61F
SIOUX LOOKOUT  PTCLDY    57  55  94 NW5       29.62S
TORONTO        PTCLDY    61  54  77 W7        29.82F
BIG TROUT LK   MOCLDY    50  46  87 NW12G22   29.44S
PICKLE LAKE    NOT AVBL
DRYDEN         CLEAR     55  54  94 W6        29.64S
KENORA         PTCLDY    61  57  88 NW6       29.65F
$$
                *** MANITOBA***

CITY           SKY/WX    TMP DP  RH WIND       PRES   REMARKS
BRANDON        PTCLDY    54  54 100 N7        29.80R
DAUPHIN        CLEAR     54  52  94 W9        29.80R
ISLAND LAKE    CLOUDY    54  48  82 NW12G20   29.57S
PILOT MOUND      N/A     59  57  94 N10         N/A
THE PAS        PTCLDY    57  48  72 NW12      29.79R
THOMPSON       LGT RAIN  50  46  87 NW9       29.64S
WINNIPEG       PTCLDY    55  54  94 NW8       29.71S
LYNN LAKE      CLOUDY    52  46  82 NW14G22   29.76R
CHURCHILL      LGT RAIN  46  45  93 N20       29.53S FOG
$$
                ***SASKATCHEWAN***

CITY           SKY/WX    TMP DP  RH WIND       PRES   REMARKS
ESTEVAN        CLEAR     50  50 100 W7        29.90R
KINDERSLEY     PTCLDY    52  50  93 N5        30.04R
LLOYDMINSTER   CLEAR     48  46  93 W3        30.02S
PRINCE ALBERT  CLEAR     50  50 100 W6        29.94R
REGINA         CLEAR     54  54 100 NW10      29.94R
YORKTON        CLEAR     55  54  94 NW9       29.87R


USA.gov is the U.S. government's official web portal to all federal, state and local government web resources and services.